Location: Bessat
(45.8735°N, 1.9924°E)
Time: 23:02:00
(UTC+00:00)

OE (NEXTSAT) - Pass Details

Date: 11 May 2021
Orbit: 425 x 432 km, 46.0° (Epoch: 24 June)

Event Time Altitude Azimuth Distance (km) Brightness Sun altitude
Rises 19:55:15 0° 276° (W) 2,395 9.3 -7.2°
Reaches altitude 10° 19:57:22 10° 276° (W) 1,529 8.2 -7.5°
Maximum altitude 20:00:50 87° 187° (S) 436 4.3 -8.0°
Drops below altitude 10° 20:04:18 10° 99° (E) 1,531 6.6 -8.4°
Enters shadow 20:04:29 - 99° (E) 1,607 6.7 -8.5°
